Location: Asheville, NC
(35.6000°N, 82.5500°W)
Time: 18:51:06
(UTC-04:00)

NUDT-PHONESAT - Pass Details

Date: 11 January 2018
Orbit: 494 x 511 km, 97.4° (Epoch: 23 April)

Event Time Altitude Azimuth Distance (km) Brightness Sun altitude
Rises 18:48:18 0° 195° (SSW) 2,609 ? -14.4°
Reaches altitude 10° 18:50:41 10° 209° (SSW) 1,729 ? -14.8°
Maximum altitude 18:53:43 23° 264° (W) 1,114 ? -15.4°
Drops below altitude 10° 18:56:46 10° 318° (NW) 1,739 ? -16.0°
Sets 18:59:11 0° 333° (NNW) 2,628 ? -16.5°
